Index of /20260430/WXO-DD/model_gdps/15km/12/165
Name Last modified Size Description
Parent Directory -
20260430T12Z_MSC_GDPS_AirTemp_AGL-120m_LatLon0.15_PT165H.grib2 2026-04-30 16:31 903K
20260430T12Z_MSC_GDPS_AirTemp_AGL-2m_LatLon0.15_PT165H.grib2 2026-04-30 16:31 1.0M
20260430T12Z_MSC_GDPS_AirTemp_AGL-40m_LatLon0.15_PT165H.grib2 2026-04-30 16:31 804K
20260430T12Z_MSC_GDPS_AirTemp_AGL-80m_LatLon0.15_PT165H.grib2 2026-04-30 16:31 911K
20260430T12Z_MSC_GDPS_AirTemp_IsbL-0001_LatLon0.15_PT165H.grib2 2026-04-30 16:31 662K
20260430T12Z_MSC_GDPS_AirTemp_IsbL-0005_LatLon0.15_PT165H.grib2 2026-04-30 16:31 691K
20260430T12Z_MSC_GDPS_AirTemp_IsbL-0010_LatLon0.15_PT165H.grib2 2026-04-30 16:31 763K
20260430T12Z_MSC_GDPS_AirTemp_IsbL-0020_LatLon0.15_PT165H.grib2 2026-04-30 16:31 787K
20260430T12Z_MSC_GDPS_AirTemp_IsbL-0030_LatLon0.15_PT165H.grib2 2026-04-30 16:31 836K
20260430T12Z_MSC_GDPS_AirTemp_IsbL-0050_LatLon0.15_PT165H.grib2 2026-04-30 16:31 806K
20260430T12Z_MSC_GDPS_AirTemp_IsbL-0100_LatLon0.15_PT165H.grib2 2026-04-30 16:31 963K
20260430T12Z_MSC_GDPS_AirTemp_IsbL-0150_LatLon0.15_PT165H.grib2 2026-04-30 16:31 1.0M
20260430T12Z_MSC_GDPS_AirTemp_IsbL-0175_LatLon0.15_PT165H.grib2 2026-04-30 16:31 954K
20260430T12Z_MSC_GDPS_AirTemp_IsbL-0200_LatLon0.15_PT165H.grib2 2026-04-30 16:31 971K
20260430T12Z_MSC_GDPS_AirTemp_IsbL-0225_LatLon0.15_PT165H.grib2 2026-04-30 16:31 1.0M
20260430T12Z_MSC_GDPS_AirTemp_IsbL-0250_LatLon0.15_PT165H.grib2 2026-04-30 16:31 1.0M
20260430T12Z_MSC_GDPS_AirTemp_IsbL-0275_LatLon0.15_PT165H.grib2 2026-04-30 16:31 1.0M
20260430T12Z_MSC_GDPS_AirTemp_IsbL-0300_LatLon0.15_PT165H.grib2 2026-04-30 16:31 1.0M
20260430T12Z_MSC_GDPS_AirTemp_IsbL-0350_LatLon0.15_PT165H.grib2 2026-04-30 16:31 926K
20260430T12Z_MSC_GDPS_AirTemp_IsbL-0400_LatLon0.15_PT165H.grib2 2026-04-30 16:31 943K
20260430T12Z_MSC_GDPS_AirTemp_IsbL-0450_LatLon0.15_PT165H.grib2 2026-04-30 16:31 966K
20260430T12Z_MSC_GDPS_AirTemp_IsbL-0500_LatLon0.15_PT165H.grib2 2026-04-30 16:31 1.0M
20260430T12Z_MSC_GDPS_AirTemp_IsbL-0550_LatLon0.15_PT165H.grib2 2026-04-30 16:31 1.0M
20260430T12Z_MSC_GDPS_AirTemp_IsbL-0600_LatLon0.15_PT165H.grib2 2026-04-30 16:31 890K
20260430T12Z_MSC_GDPS_AirTemp_IsbL-0650_LatLon0.15_PT165H.grib2 2026-04-30 16:31 919K
20260430T12Z_MSC_GDPS_AirTemp_IsbL-0700_LatLon0.15_PT165H.grib2 2026-04-30 16:31 954K
20260430T12Z_MSC_GDPS_AirTemp_IsbL-0750_LatLon0.15_PT165H.grib2 2026-04-30 16:31 1.0M
20260430T12Z_MSC_GDPS_AirTemp_IsbL-0800_LatLon0.15_PT165H.grib2 2026-04-30 16:31 1.1M
20260430T12Z_MSC_GDPS_AirTemp_IsbL-0850_LatLon0.15_PT165H.grib2 2026-04-30 16:31 1.1M
20260430T12Z_MSC_GDPS_AirTemp_IsbL-0875_LatLon0.15_PT165H.grib2 2026-04-30 16:31 1.2M
20260430T12Z_MSC_GDPS_AirTemp_IsbL-0900_LatLon0.15_PT165H.grib2 2026-04-30 16:31 1.2M
20260430T12Z_MSC_GDPS_AirTemp_IsbL-0925_LatLon0.15_PT165H.grib2 2026-04-30 16:31 1.1M
20260430T12Z_MSC_GDPS_AirTemp_IsbL-0950_LatLon0.15_PT165H.grib2 2026-04-30 16:31 1.1M
20260430T12Z_MSC_GDPS_AirTemp_IsbL-0970_LatLon0.15_PT165H.grib2 2026-04-30 16:31 1.1M
20260430T12Z_MSC_GDPS_AirTemp_IsbL-0985_LatLon0.15_PT165H.grib2 2026-04-30 16:31 1.1M
20260430T12Z_MSC_GDPS_AirTemp_IsbL-1000_LatLon0.15_PT165H.grib2 2026-04-30 16:31 1.1M
20260430T12Z_MSC_GDPS_AirTemp_IsbL-1015_LatLon0.15_PT165H.grib2 2026-04-30 16:31 1.1M
20260430T12Z_MSC_GDPS_Albedo_Sfc_LatLon0.15_PT165H.grib2 2026-04-30 16:31 242K
20260430T12Z_MSC_GDPS_CAPE_Sfc_LatLon0.15_PT165H.grib2 2026-04-30 16:31 4.1M
20260430T12Z_MSC_GDPS_CIN_Sfc_LatLon0.15_PT165H.grib2 2026-04-30 16:31 3.0M
20260430T12Z_MSC_GDPS_ConvectivePrecip-Accum_Sfc_LatLon0.15_PT165H.grib2 2026-04-30 16:31 3.8M
20260430T12Z_MSC_GDPS_DewPointDepression_AGL-2m_LatLon0.15_PT165H.grib2 2026-04-30 16:31 759K
20260430T12Z_MSC_GDPS_DewPointDepression_IsbL-0010_LatLon0.15_PT165H.grib2 2026-04-30 16:31 72K
20260430T12Z_MSC_GDPS_DewPointDepression_IsbL-0020_LatLon0.15_PT165H.grib2 2026-04-30 16:31 68K
20260430T12Z_MSC_GDPS_DewPointDepression_IsbL-0030_LatLon0.15_PT165H.grib2 2026-04-30 16:31 88K
20260430T12Z_MSC_GDPS_DewPointDepression_IsbL-0050_LatLon0.15_PT165H.grib2 2026-04-30 16:31 380K
20260430T12Z_MSC_GDPS_DewPointDepression_IsbL-0100_LatLon0.15_PT165H.grib2 2026-04-30 16:31 395K
20260430T12Z_MSC_GDPS_DewPointDepression_IsbL-0150_LatLon0.15_PT165H.grib2 2026-04-30 16:31 487K
20260430T12Z_MSC_GDPS_DewPointDepression_IsbL-0175_LatLon0.15_PT165H.grib2 2026-04-30 16:31 591K
20260430T12Z_MSC_GDPS_DewPointDepression_IsbL-0200_LatLon0.15_PT165H.grib2 2026-04-30 16:31 687K
20260430T12Z_MSC_GDPS_DewPointDepression_IsbL-0225_LatLon0.15_PT165H.grib2 2026-04-30 16:31 763K
20260430T12Z_MSC_GDPS_DewPointDepression_IsbL-0250_LatLon0.15_PT165H.grib2 2026-04-30 16:31 865K
20260430T12Z_MSC_GDPS_DewPointDepression_IsbL-0275_LatLon0.15_PT165H.grib2 2026-04-30 16:31 889K
20260430T12Z_MSC_GDPS_DewPointDepression_IsbL-0300_LatLon0.15_PT165H.grib2 2026-04-30 16:31 932K
20260430T12Z_MSC_GDPS_DewPointDepression_IsbL-0350_LatLon0.15_PT165H.grib2 2026-04-30 16:31 962K
20260430T12Z_MSC_GDPS_DewPointDepression_IsbL-0400_LatLon0.15_PT165H.grib2 2026-04-30 16:31 1.0M
20260430T12Z_MSC_GDPS_DewPointDepression_IsbL-0450_LatLon0.15_PT165H.grib2 2026-04-30 16:31 1.0M
20260430T12Z_MSC_GDPS_DewPointDepression_IsbL-0500_LatLon0.15_PT165H.grib2 2026-04-30 16:31 1.0M
20260430T12Z_MSC_GDPS_DewPointDepression_IsbL-0550_LatLon0.15_PT165H.grib2 2026-04-30 16:31 1.0M
20260430T12Z_MSC_GDPS_DewPointDepression_IsbL-0600_LatLon0.15_PT165H.grib2 2026-04-30 16:31 1.1M
20260430T12Z_MSC_GDPS_DewPointDepression_IsbL-0650_LatLon0.15_PT165H.grib2 2026-04-30 16:31 1.1M
20260430T12Z_MSC_GDPS_DewPointDepression_IsbL-0700_LatLon0.15_PT165H.grib2 2026-04-30 16:31 1.1M
20260430T12Z_MSC_GDPS_DewPointDepression_IsbL-0750_LatLon0.15_PT165H.grib2 2026-04-30 16:31 1.1M
20260430T12Z_MSC_GDPS_DewPointDepression_IsbL-0800_LatLon0.15_PT165H.grib2 2026-04-30 16:31 1.2M
20260430T12Z_MSC_GDPS_DewPointDepression_IsbL-0850_LatLon0.15_PT165H.grib2 2026-04-30 16:31 1.2M
20260430T12Z_MSC_GDPS_DewPointDepression_IsbL-0875_LatLon0.15_PT165H.grib2 2026-04-30 16:31 1.1M
20260430T12Z_MSC_GDPS_DewPointDepression_IsbL-0900_LatLon0.15_PT165H.grib2 2026-04-30 16:31 1.1M
20260430T12Z_MSC_GDPS_DewPointDepression_IsbL-0925_LatLon0.15_PT165H.grib2 2026-04-30 16:31 1.0M
20260430T12Z_MSC_GDPS_DewPointDepression_IsbL-0950_LatLon0.15_PT165H.grib2 2026-04-30 16:31 1.0M
20260430T12Z_MSC_GDPS_DewPointDepression_IsbL-0970_LatLon0.15_PT165H.grib2 2026-04-30 16:31 1.0M
20260430T12Z_MSC_GDPS_DewPointDepression_IsbL-0985_LatLon0.15_PT165H.grib2 2026-04-30 16:31 1.0M
20260430T12Z_MSC_GDPS_DewPointDepression_IsbL-1000_LatLon0.15_PT165H.grib2 2026-04-30 16:31 970K
20260430T12Z_MSC_GDPS_DewPointDepression_IsbL-1015_LatLon0.15_PT165H.grib2 2026-04-30 16:31 915K
20260430T12Z_MSC_GDPS_DewPoint_AGL-2m_LatLon0.15_PT165H.grib2 2026-04-30 16:31 609K
20260430T12Z_MSC_GDPS_DownwardLongwaveRadiationFlux-Accum_Sfc_LatLon0.15_PT165H.grib2 2026-04-30 16:31 635K
20260430T12Z_MSC_GDPS_DownwardShortwaveRadiationFlux-Accum_Sfc_LatLon0.15_PT165H.grib2 2026-04-30 16:31 818K
20260430T12Z_MSC_GDPS_FreezingRain-Accum3h_Sfc_LatLon0.15_PT165H.grib2 2026-04-30 16:31 50K
20260430T12Z_MSC_GDPS_FreezingRain-Accum_Sfc_LatLon0.15_PT165H.grib2 2026-04-30 16:31 481K
20260430T12Z_MSC_GDPS_GeopotentialHeight_IsbL-0001_LatLon0.15_PT165H.grib2 2026-04-30 16:31 431K
20260430T12Z_MSC_GDPS_GeopotentialHeight_IsbL-0005_LatLon0.15_PT165H.grib2 2026-04-30 16:31 492K
20260430T12Z_MSC_GDPS_GeopotentialHeight_IsbL-0010_LatLon0.15_PT165H.grib2 2026-04-30 16:31 477K
20260430T12Z_MSC_GDPS_GeopotentialHeight_IsbL-0020_LatLon0.15_PT165H.grib2 2026-04-30 16:31 413K
20260430T12Z_MSC_GDPS_GeopotentialHeight_IsbL-0030_LatLon0.15_PT165H.grib2 2026-04-30 16:31 416K
20260430T12Z_MSC_GDPS_GeopotentialHeight_IsbL-0050_LatLon0.15_PT165H.grib2 2026-04-30 16:31 562K
20260430T12Z_MSC_GDPS_GeopotentialHeight_IsbL-0100_LatLon0.15_PT165H.grib2 2026-04-30 16:31 604K
20260430T12Z_MSC_GDPS_GeopotentialHeight_IsbL-0150_LatLon0.15_PT165H.grib2 2026-04-30 16:31 625K
20260430T12Z_MSC_GDPS_GeopotentialHeight_IsbL-0175_LatLon0.15_PT165H.grib2 2026-04-30 16:31 627K
20260430T12Z_MSC_GDPS_GeopotentialHeight_IsbL-0200_LatLon0.15_PT165H.grib2 2026-04-30 16:31 632K
20260430T12Z_MSC_GDPS_GeopotentialHeight_IsbL-0225_LatLon0.15_PT165H.grib2 2026-04-30 16:31 636K
20260430T12Z_MSC_GDPS_GeopotentialHeight_IsbL-0250_LatLon0.15_PT165H.grib2 2026-04-30 16:31 639K
20260430T12Z_MSC_GDPS_GeopotentialHeight_IsbL-0275_LatLon0.15_PT165H.grib2 2026-04-30 16:31 639K
20260430T12Z_MSC_GDPS_GeopotentialHeight_IsbL-0300_LatLon0.15_PT165H.grib2 2026-04-30 16:31 638K
20260430T12Z_MSC_GDPS_GeopotentialHeight_IsbL-0350_LatLon0.15_PT165H.grib2 2026-04-30 16:31 627K
20260430T12Z_MSC_GDPS_GeopotentialHeight_IsbL-0400_LatLon0.15_PT165H.grib2 2026-04-30 16:31 618K
20260430T12Z_MSC_GDPS_GeopotentialHeight_IsbL-0450_LatLon0.15_PT165H.grib2 2026-04-30 16:31 539K
20260430T12Z_MSC_GDPS_GeopotentialHeight_IsbL-0500_LatLon0.15_PT165H.grib2 2026-04-30 16:31 529K
20260430T12Z_MSC_GDPS_GeopotentialHeight_IsbL-0550_LatLon0.15_PT165H.grib2 2026-04-30 16:31 520K
20260430T12Z_MSC_GDPS_GeopotentialHeight_IsbL-0600_LatLon0.15_PT165H.grib2 2026-04-30 16:31 519K
20260430T12Z_MSC_GDPS_GeopotentialHeight_IsbL-0650_LatLon0.15_PT165H.grib2 2026-04-30 16:31 688K
20260430T12Z_MSC_GDPS_GeopotentialHeight_IsbL-0700_LatLon0.15_PT165H.grib2 2026-04-30 16:31 690K
20260430T12Z_MSC_GDPS_GeopotentialHeight_IsbL-0750_LatLon0.15_PT165H.grib2 2026-04-30 16:31 690K
20260430T12Z_MSC_GDPS_GeopotentialHeight_IsbL-0800_LatLon0.15_PT165H.grib2 2026-04-30 16:31 701K
20260430T12Z_MSC_GDPS_GeopotentialHeight_IsbL-0850_LatLon0.15_PT165H.grib2 2026-04-30 16:31 719K
20260430T12Z_MSC_GDPS_GeopotentialHeight_IsbL-0875_LatLon0.15_PT165H.grib2 2026-04-30 16:31 720K
20260430T12Z_MSC_GDPS_GeopotentialHeight_IsbL-0900_LatLon0.15_PT165H.grib2 2026-04-30 16:31 727K
20260430T12Z_MSC_GDPS_GeopotentialHeight_IsbL-0925_LatLon0.15_PT165H.grib2 2026-04-30 16:31 735K
20260430T12Z_MSC_GDPS_GeopotentialHeight_IsbL-0950_LatLon0.15_PT165H.grib2 2026-04-30 16:31 743K
20260430T12Z_MSC_GDPS_GeopotentialHeight_IsbL-0970_LatLon0.15_PT165H.grib2 2026-04-30 16:31 753K
20260430T12Z_MSC_GDPS_GeopotentialHeight_IsbL-0985_LatLon0.15_PT165H.grib2 2026-04-30 16:31 767K
20260430T12Z_MSC_GDPS_GeopotentialHeight_IsbL-1000_LatLon0.15_PT165H.grib2 2026-04-30 16:31 787K
20260430T12Z_MSC_GDPS_GeopotentialHeight_IsbL-1015_LatLon0.15_PT165H.grib2 2026-04-30 16:31 811K
20260430T12Z_MSC_GDPS_Humidex_Sfc_LatLon0.15_PT165H.grib2 2026-04-30 16:31 5.3M
20260430T12Z_MSC_GDPS_IcePellets-Accum3h_Sfc_LatLon0.15_PT165H.grib2 2026-04-30 16:31 2.5K
20260430T12Z_MSC_GDPS_IcePellets-Accum_Sfc_LatLon0.15_PT165H.grib2 2026-04-30 16:31 156K
20260430T12Z_MSC_GDPS_KIndex_Sfc_LatLon0.15_PT165H.grib2 2026-04-30 16:31 6.5M
20260430T12Z_MSC_GDPS_LatentHeatNetFlux_Sfc_LatLon0.15_PT165H.grib2 2026-04-30 16:31 561K
20260430T12Z_MSC_GDPS_LiftedIndex-MU-VT_IsbL-0500_LatLon0.15_PT165H.grib2 2026-04-30 16:31 5.4M
20260430T12Z_MSC_GDPS_NetLongwaveRadiationFlux-Accum_Sfc_LatLon0.15_PT165H.grib2 2026-04-30 16:31 1.1M
20260430T12Z_MSC_GDPS_NetShortwaveRadiationFlux-Accum_Sfc_LatLon0.15_PT165H.grib2 2026-04-30 16:31 1.0M
20260430T12Z_MSC_GDPS_O3MixingRatio_Sfc_LatLon0.15_PT165H.grib2 2026-04-30 16:45 1.9M
20260430T12Z_MSC_GDPS_O3_EAtm_LatLon0.15_PT165H.grib2 2026-04-30 16:45 2.4M
20260430T12Z_MSC_GDPS_PlanetaryBoundaryLayerHeight_Sfc_LatLon0.15_PT165H.grib2 2026-04-30 16:31 2.5M
20260430T12Z_MSC_GDPS_Precip-Accum3h_Sfc_LatLon0.15_PT165H.grib2 2026-04-30 16:31 3.5M
20260430T12Z_MSC_GDPS_Precip-Accum_Sfc_LatLon0.15_PT165H.grib2 2026-04-30 16:31 5.3M
20260430T12Z_MSC_GDPS_PrecipRate_Sfc_LatLon0.15_PT165H.grib2 2026-04-30 16:31 3.2M
20260430T12Z_MSC_GDPS_PrecipType-Instant_Sfc_LatLon0.15_PT165H.grib2 2026-04-30 16:31 1.6M
20260430T12Z_MSC_GDPS_Pressure_MSL_LatLon0.15_PT165H.grib2 2026-04-30 16:31 720K
20260430T12Z_MSC_GDPS_Pressure_PVU-1.5_LatLon0.15_PT165H.grib2 2026-04-30 16:31 5.8M
20260430T12Z_MSC_GDPS_Pressure_PVU-1_LatLon0.15_PT165H.grib2 2026-04-30 16:31 6.0M
20260430T12Z_MSC_GDPS_Pressure_PVU-2_LatLon0.15_PT165H.grib2 2026-04-30 16:31 6.0M
20260430T12Z_MSC_GDPS_Pressure_Sfc_LatLon0.15_PT165H.grib2 2026-04-30 16:31 1.1M
20260430T12Z_MSC_GDPS_RadiativeTemp_Sfc_LatLon0.15_PT165H.grib2 2026-04-30 16:31 506K
20260430T12Z_MSC_GDPS_Rain-Accum3h_Sfc_LatLon0.15_PT165H.grib2 2026-04-30 16:31 1.9M
20260430T12Z_MSC_GDPS_Rain-Accum_Sfc_LatLon0.15_PT165H.grib2 2026-04-30 16:31 4.2M
20260430T12Z_MSC_GDPS_RelativeHumidity_AGL-2m_LatLon0.15_PT165H.grib2 2026-04-30 16:31 1.0M
20260430T12Z_MSC_GDPS_RelativeHumidity_IsbL-0010_LatLon0.15_PT165H.grib2 2026-04-30 16:31 194K
20260430T12Z_MSC_GDPS_RelativeHumidity_IsbL-0020_LatLon0.15_PT165H.grib2 2026-04-30 16:31 159K
20260430T12Z_MSC_GDPS_RelativeHumidity_IsbL-0030_LatLon0.15_PT165H.grib2 2026-04-30 16:31 262K
20260430T12Z_MSC_GDPS_RelativeHumidity_IsbL-0050_LatLon0.15_PT165H.grib2 2026-04-30 16:31 334K
20260430T12Z_MSC_GDPS_RelativeHumidity_IsbL-0100_LatLon0.15_PT165H.grib2 2026-04-30 16:31 499K
20260430T12Z_MSC_GDPS_RelativeHumidity_IsbL-0150_LatLon0.15_PT165H.grib2 2026-04-30 16:31 674K
20260430T12Z_MSC_GDPS_RelativeHumidity_IsbL-0175_LatLon0.15_PT165H.grib2 2026-04-30 16:31 798K
20260430T12Z_MSC_GDPS_RelativeHumidity_IsbL-0200_LatLon0.15_PT165H.grib2 2026-04-30 16:31 711K
20260430T12Z_MSC_GDPS_RelativeHumidity_IsbL-0225_LatLon0.15_PT165H.grib2 2026-04-30 16:31 790K
20260430T12Z_MSC_GDPS_RelativeHumidity_IsbL-0250_LatLon0.15_PT165H.grib2 2026-04-30 16:31 868K
20260430T12Z_MSC_GDPS_RelativeHumidity_IsbL-0275_LatLon0.15_PT165H.grib2 2026-04-30 16:31 893K
20260430T12Z_MSC_GDPS_RelativeHumidity_IsbL-0300_LatLon0.15_PT165H.grib2 2026-04-30 16:31 934K
20260430T12Z_MSC_GDPS_RelativeHumidity_IsbL-0350_LatLon0.15_PT165H.grib2 2026-04-30 16:31 951K
20260430T12Z_MSC_GDPS_RelativeHumidity_IsbL-0400_LatLon0.15_PT165H.grib2 2026-04-30 16:31 1.0M
20260430T12Z_MSC_GDPS_RelativeHumidity_IsbL-0450_LatLon0.15_PT165H.grib2 2026-04-30 16:31 1.0M
20260430T12Z_MSC_GDPS_RelativeHumidity_IsbL-0500_LatLon0.15_PT165H.grib2 2026-04-30 16:31 1.0M
20260430T12Z_MSC_GDPS_RelativeHumidity_IsbL-0550_LatLon0.15_PT165H.grib2 2026-04-30 16:31 1.0M
20260430T12Z_MSC_GDPS_RelativeHumidity_IsbL-0600_LatLon0.15_PT165H.grib2 2026-04-30 16:31 1.0M
20260430T12Z_MSC_GDPS_RelativeHumidity_IsbL-0650_LatLon0.15_PT165H.grib2 2026-04-30 16:31 1.1M
20260430T12Z_MSC_GDPS_RelativeHumidity_IsbL-0700_LatLon0.15_PT165H.grib2 2026-04-30 16:31 1.1M
20260430T12Z_MSC_GDPS_RelativeHumidity_IsbL-0750_LatLon0.15_PT165H.grib2 2026-04-30 16:31 1.2M
20260430T12Z_MSC_GDPS_RelativeHumidity_IsbL-0800_LatLon0.15_PT165H.grib2 2026-04-30 16:31 1.2M
20260430T12Z_MSC_GDPS_RelativeHumidity_IsbL-0850_LatLon0.15_PT165H.grib2 2026-04-30 16:31 1.3M
20260430T12Z_MSC_GDPS_RelativeHumidity_IsbL-0875_LatLon0.15_PT165H.grib2 2026-04-30 16:31 1.3M
20260430T12Z_MSC_GDPS_RelativeHumidity_IsbL-0900_LatLon0.15_PT165H.grib2 2026-04-30 16:31 1.2M
20260430T12Z_MSC_GDPS_RelativeHumidity_IsbL-0925_LatLon0.15_PT165H.grib2 2026-04-30 16:31 1.2M
20260430T12Z_MSC_GDPS_RelativeHumidity_IsbL-0950_LatLon0.15_PT165H.grib2 2026-04-30 16:31 1.2M
20260430T12Z_MSC_GDPS_RelativeHumidity_IsbL-0970_LatLon0.15_PT165H.grib2 2026-04-30 16:31 1.2M
20260430T12Z_MSC_GDPS_RelativeHumidity_IsbL-0985_LatLon0.15_PT165H.grib2 2026-04-30 16:31 1.1M
20260430T12Z_MSC_GDPS_RelativeHumidity_IsbL-1000_LatLon0.15_PT165H.grib2 2026-04-30 16:31 1.1M
20260430T12Z_MSC_GDPS_RelativeHumidity_IsbL-1015_LatLon0.15_PT165H.grib2 2026-04-30 16:31 1.0M
20260430T12Z_MSC_GDPS_Runoff-Accum_Sfc_LatLon0.15_PT165H.grib2 2026-04-30 16:31 165K
20260430T12Z_MSC_GDPS_SensibleHeatNetFlux_Sfc_LatLon0.15_PT165H.grib2 2026-04-30 16:31 499K
20260430T12Z_MSC_GDPS_ShowalterIndex_IsbL-0500_LatLon0.15_PT165H.grib2 2026-04-30 16:31 6.2M
20260430T12Z_MSC_GDPS_Snow-Accum3h_Sfc_LatLon0.15_PT165H.grib2 2026-04-30 16:31 1.1M
20260430T12Z_MSC_GDPS_Snow-Accum_Sfc_LatLon0.15_PT165H.grib2 2026-04-30 16:31 2.1M
20260430T12Z_MSC_GDPS_SnowDepth_Sfc_LatLon0.15_PT165H.grib2 2026-04-30 16:31 1.7M
20260430T12Z_MSC_GDPS_SoilTemp_DBS-0to10cm_LatLon0.15_PT165H.grib2 2026-04-30 16:31 514K
20260430T12Z_MSC_GDPS_SoilTemp_Sfc_LatLon0.15_PT165H.grib2 2026-04-30 16:31 584K
20260430T12Z_MSC_GDPS_SoilVolumetricWaterContent_DBS-0to10cm_LatLon0.15_PT165H.grib2 2026-04-30 16:31 595K
20260430T12Z_MSC_GDPS_SoilVolumetricWaterContent_DBS-0to1cm_LatLon0.15_PT165H.grib2 2026-04-30 16:31 650K
20260430T12Z_MSC_GDPS_SpecificHumidity_AGL-120m_LatLon0.15_PT165H.grib2 2026-04-30 16:31 1.1M
20260430T12Z_MSC_GDPS_SpecificHumidity_AGL-2m_LatLon0.15_PT165H.grib2 2026-04-30 16:31 1.2M
20260430T12Z_MSC_GDPS_SpecificHumidity_AGL-40m_LatLon0.15_PT165H.grib2 2026-04-30 16:31 1.1M
20260430T12Z_MSC_GDPS_SpecificHumidity_AGL-80m_LatLon0.15_PT165H.grib2 2026-04-30 16:31 1.1M
20260430T12Z_MSC_GDPS_SpecificHumidity_IsbL-0001_LatLon0.15_PT165H.grib2 2026-04-30 16:31 1.2M
20260430T12Z_MSC_GDPS_SpecificHumidity_IsbL-0005_LatLon0.15_PT165H.grib2 2026-04-30 16:31 1.1M
20260430T12Z_MSC_GDPS_SpecificHumidity_IsbL-0010_LatLon0.15_PT165H.grib2 2026-04-30 16:31 1.2M
20260430T12Z_MSC_GDPS_SpecificHumidity_IsbL-0020_LatLon0.15_PT165H.grib2 2026-04-30 16:31 1.2M
20260430T12Z_MSC_GDPS_SpecificHumidity_IsbL-0030_LatLon0.15_PT165H.grib2 2026-04-30 16:31 1.5M
20260430T12Z_MSC_GDPS_SpecificHumidity_IsbL-0050_LatLon0.15_PT165H.grib2 2026-04-30 16:31 1.5M
20260430T12Z_MSC_GDPS_SpecificHumidity_IsbL-0100_LatLon0.15_PT165H.grib2 2026-04-30 16:31 1.3M
20260430T12Z_MSC_GDPS_SpecificHumidity_IsbL-0150_LatLon0.15_PT165H.grib2 2026-04-30 16:31 1.3M
20260430T12Z_MSC_GDPS_SpecificHumidity_IsbL-0175_LatLon0.15_PT165H.grib2 2026-04-30 16:31 1.2M
20260430T12Z_MSC_GDPS_SpecificHumidity_IsbL-0200_LatLon0.15_PT165H.grib2 2026-04-30 16:31 1.3M
20260430T12Z_MSC_GDPS_SpecificHumidity_IsbL-0225_LatLon0.15_PT165H.grib2 2026-04-30 16:31 1.3M
20260430T12Z_MSC_GDPS_SpecificHumidity_IsbL-0250_LatLon0.15_PT165H.grib2 2026-04-30 16:31 1.4M
20260430T12Z_MSC_GDPS_SpecificHumidity_IsbL-0275_LatLon0.15_PT165H.grib2 2026-04-30 16:31 1.3M
20260430T12Z_MSC_GDPS_SpecificHumidity_IsbL-0300_LatLon0.15_PT165H.grib2 2026-04-30 16:31 1.2M
20260430T12Z_MSC_GDPS_SpecificHumidity_IsbL-0350_LatLon0.15_PT165H.grib2 2026-04-30 16:31 1.2M
20260430T12Z_MSC_GDPS_SpecificHumidity_IsbL-0400_LatLon0.15_PT165H.grib2 2026-04-30 16:31 1.5M
20260430T12Z_MSC_GDPS_SpecificHumidity_IsbL-0450_LatLon0.15_PT165H.grib2 2026-04-30 16:31 1.3M
20260430T12Z_MSC_GDPS_SpecificHumidity_IsbL-0500_LatLon0.15_PT165H.grib2 2026-04-30 16:31 1.4M
20260430T12Z_MSC_GDPS_SpecificHumidity_IsbL-0550_LatLon0.15_PT165H.grib2 2026-04-30 16:31 1.6M
20260430T12Z_MSC_GDPS_SpecificHumidity_IsbL-0600_LatLon0.15_PT165H.grib2 2026-04-30 16:31 1.4M
20260430T12Z_MSC_GDPS_SpecificHumidity_IsbL-0650_LatLon0.15_PT165H.grib2 2026-04-30 16:31 1.5M
20260430T12Z_MSC_GDPS_SpecificHumidity_IsbL-0700_LatLon0.15_PT165H.grib2 2026-04-30 16:31 1.6M
20260430T12Z_MSC_GDPS_SpecificHumidity_IsbL-0750_LatLon0.15_PT165H.grib2 2026-04-30 16:31 1.7M
20260430T12Z_MSC_GDPS_SpecificHumidity_IsbL-0800_LatLon0.15_PT165H.grib2 2026-04-30 16:31 1.9M
20260430T12Z_MSC_GDPS_SpecificHumidity_IsbL-0850_LatLon0.15_PT165H.grib2 2026-04-30 16:31 2.0M
20260430T12Z_MSC_GDPS_SpecificHumidity_IsbL-0875_LatLon0.15_PT165H.grib2 2026-04-30 16:31 2.0M
20260430T12Z_MSC_GDPS_SpecificHumidity_IsbL-0900_LatLon0.15_PT165H.grib2 2026-04-30 16:31 1.6M
20260430T12Z_MSC_GDPS_SpecificHumidity_IsbL-0925_LatLon0.15_PT165H.grib2 2026-04-30 16:31 1.6M
20260430T12Z_MSC_GDPS_SpecificHumidity_IsbL-0950_LatLon0.15_PT165H.grib2 2026-04-30 16:31 1.6M
20260430T12Z_MSC_GDPS_SpecificHumidity_IsbL-0970_LatLon0.15_PT165H.grib2 2026-04-30 16:31 1.6M
20260430T12Z_MSC_GDPS_SpecificHumidity_IsbL-0985_LatLon0.15_PT165H.grib2 2026-04-30 16:31 1.5M
20260430T12Z_MSC_GDPS_SpecificHumidity_IsbL-1000_LatLon0.15_PT165H.grib2 2026-04-30 16:31 1.5M
20260430T12Z_MSC_GDPS_SpecificHumidity_IsbL-1015_LatLon0.15_PT165H.grib2 2026-04-30 16:31 1.5M
20260430T12Z_MSC_GDPS_SpecificHumidity_Sfc_LatLon0.15_PT165H.grib2 2026-04-30 16:31 688K
20260430T12Z_MSC_GDPS_Thickness_IsbL-0850to0700_LatLon0.15_PT165H.grib2 2026-04-30 16:31 467K
20260430T12Z_MSC_GDPS_Thickness_IsbL-1000to0500_LatLon0.15_PT165H.grib2 2026-04-30 16:31 370K
20260430T12Z_MSC_GDPS_Thickness_IsbL-1000to0850_LatLon0.15_PT165H.grib2 2026-04-30 16:31 490K
20260430T12Z_MSC_GDPS_TotalCloudCover_Sfc_LatLon0.15_PT165H.grib2 2026-04-30 16:31 836K
20260430T12Z_MSC_GDPS_TotalTotalsIndex_Sfc_LatLon0.15_PT165H.grib2 2026-04-30 16:31 6.2M
20260430T12Z_MSC_GDPS_UVIndex-ClearSky_Sfc_LatLon0.15_PT165H.grib2 2026-04-30 16:45 1.1M
20260430T12Z_MSC_GDPS_UVIndex_Sfc_LatLon0.15_PT165H.grib2 2026-04-30 16:45 1.5M
20260430T12Z_MSC_GDPS_UpwardLongwaveRadiationFlux_NTAtm_LatLon0.15_PT165H.grib2 2026-04-30 16:31 843K
20260430T12Z_MSC_GDPS_VerticalVelocity_IsbL-0500_LatLon0.15_PT165H.grib2 2026-04-30 16:31 1.0M
20260430T12Z_MSC_GDPS_VerticalVelocity_IsbL-0700_LatLon0.15_PT165H.grib2 2026-04-30 16:31 1.4M
20260430T12Z_MSC_GDPS_VerticalVelocity_IsbL-0850_LatLon0.15_PT165H.grib2 2026-04-30 16:31 1.6M
20260430T12Z_MSC_GDPS_WindChill_Sfc_LatLon0.15_PT165H.grib2 2026-04-30 16:31 5.3M
20260430T12Z_MSC_GDPS_WindDir_AGL-10m_LatLon0.15_PT165H.grib2 2026-04-30 16:31 1.3M
20260430T12Z_MSC_GDPS_WindDir_AGL-120m_LatLon0.15_PT165H.grib2 2026-04-30 16:31 1.3M
20260430T12Z_MSC_GDPS_WindDir_AGL-40m_LatLon0.15_PT165H.grib2 2026-04-30 16:31 1.4M
20260430T12Z_MSC_GDPS_WindDir_AGL-80m_LatLon0.15_PT165H.grib2 2026-04-30 16:31 1.4M
20260430T12Z_MSC_GDPS_WindDir_IsbL-0001_LatLon0.15_PT165H.grib2 2026-04-30 16:31 658K
20260430T12Z_MSC_GDPS_WindDir_IsbL-0005_LatLon0.15_PT165H.grib2 2026-04-30 16:31 818K
20260430T12Z_MSC_GDPS_WindDir_IsbL-0010_LatLon0.15_PT165H.grib2 2026-04-30 16:31 831K
20260430T12Z_MSC_GDPS_WindDir_IsbL-0020_LatLon0.15_PT165H.grib2 2026-04-30 16:31 927K
20260430T12Z_MSC_GDPS_WindDir_IsbL-0030_LatLon0.15_PT165H.grib2 2026-04-30 16:31 931K
20260430T12Z_MSC_GDPS_WindDir_IsbL-0050_LatLon0.15_PT165H.grib2 2026-04-30 16:31 939K
20260430T12Z_MSC_GDPS_WindDir_IsbL-0100_LatLon0.15_PT165H.grib2 2026-04-30 16:31 1.0M
20260430T12Z_MSC_GDPS_WindDir_IsbL-0150_LatLon0.15_PT165H.grib2 2026-04-30 16:31 1.0M
20260430T12Z_MSC_GDPS_WindDir_IsbL-0175_LatLon0.15_PT165H.grib2 2026-04-30 16:31 1.0M
20260430T12Z_MSC_GDPS_WindDir_IsbL-0200_LatLon0.15_PT165H.grib2 2026-04-30 16:31 1.1M
20260430T12Z_MSC_GDPS_WindDir_IsbL-0225_LatLon0.15_PT165H.grib2 2026-04-30 16:31 1.1M
20260430T12Z_MSC_GDPS_WindDir_IsbL-0250_LatLon0.15_PT165H.grib2 2026-04-30 16:31 1.1M
20260430T12Z_MSC_GDPS_WindDir_IsbL-0275_LatLon0.15_PT165H.grib2 2026-04-30 16:31 1.2M
20260430T12Z_MSC_GDPS_WindDir_IsbL-0300_LatLon0.15_PT165H.grib2 2026-04-30 16:31 1.2M
20260430T12Z_MSC_GDPS_WindDir_IsbL-0350_LatLon0.15_PT165H.grib2 2026-04-30 16:31 1.2M
20260430T12Z_MSC_GDPS_WindDir_IsbL-0400_LatLon0.15_PT165H.grib2 2026-04-30 16:31 1.3M
20260430T12Z_MSC_GDPS_WindDir_IsbL-0450_LatLon0.15_PT165H.grib2 2026-04-30 16:31 1.3M
20260430T12Z_MSC_GDPS_WindDir_IsbL-0500_LatLon0.15_PT165H.grib2 2026-04-30 16:31 1.4M
20260430T12Z_MSC_GDPS_WindDir_IsbL-0550_LatLon0.15_PT165H.grib2 2026-04-30 16:31 1.4M
20260430T12Z_MSC_GDPS_WindDir_IsbL-0600_LatLon0.15_PT165H.grib2 2026-04-30 16:31 1.5M
20260430T12Z_MSC_GDPS_WindDir_IsbL-0650_LatLon0.15_PT165H.grib2 2026-04-30 16:31 1.5M
20260430T12Z_MSC_GDPS_WindDir_IsbL-0700_LatLon0.15_PT165H.grib2 2026-04-30 16:31 1.6M
20260430T12Z_MSC_GDPS_WindDir_IsbL-0750_LatLon0.15_PT165H.grib2 2026-04-30 16:31 1.7M
20260430T12Z_MSC_GDPS_WindDir_IsbL-0800_LatLon0.15_PT165H.grib2 2026-04-30 16:31 1.8M
20260430T12Z_MSC_GDPS_WindDir_IsbL-0850_LatLon0.15_PT165H.grib2 2026-04-30 16:31 1.9M
20260430T12Z_MSC_GDPS_WindDir_IsbL-0875_LatLon0.15_PT165H.grib2 2026-04-30 16:31 1.9M
20260430T12Z_MSC_GDPS_WindDir_IsbL-0900_LatLon0.15_PT165H.grib2 2026-04-30 16:31 2.0M
20260430T12Z_MSC_GDPS_WindDir_IsbL-0925_LatLon0.15_PT165H.grib2 2026-04-30 16:31 2.0M
20260430T12Z_MSC_GDPS_WindDir_IsbL-0950_LatLon0.15_PT165H.grib2 2026-04-30 16:31 2.0M
20260430T12Z_MSC_GDPS_WindDir_IsbL-0970_LatLon0.15_PT165H.grib2 2026-04-30 16:31 2.0M
20260430T12Z_MSC_GDPS_WindDir_IsbL-0985_LatLon0.15_PT165H.grib2 2026-04-30 16:31 2.0M
20260430T12Z_MSC_GDPS_WindDir_IsbL-1000_LatLon0.15_PT165H.grib2 2026-04-30 16:31 2.0M
20260430T12Z_MSC_GDPS_WindDir_IsbL-1015_LatLon0.15_PT165H.grib2 2026-04-30 16:31 2.0M
20260430T12Z_MSC_GDPS_WindGust-Max_AGL-10m_LatLon0.15_PT165H.grib2 2026-04-30 16:31 2.2M
20260430T12Z_MSC_GDPS_WindGust-Min_AGL-10m_LatLon0.15_PT165H.grib2 2026-04-30 16:31 2.2M
20260430T12Z_MSC_GDPS_WindGust_AGL-10m_LatLon0.15_PT165H.grib2 2026-04-30 16:31 2.2M
20260430T12Z_MSC_GDPS_WindSpeed_AGL-10m_LatLon0.15_PT165H.grib2 2026-04-30 16:31 1.1M
20260430T12Z_MSC_GDPS_WindSpeed_AGL-120m_LatLon0.15_PT165H.grib2 2026-04-30 16:31 1.2M
20260430T12Z_MSC_GDPS_WindSpeed_AGL-40m_LatLon0.15_PT165H.grib2 2026-04-30 16:31 1.2M
20260430T12Z_MSC_GDPS_WindSpeed_AGL-80m_LatLon0.15_PT165H.grib2 2026-04-30 16:31 1.2M
20260430T12Z_MSC_GDPS_WindSpeed_IsbL-0001_LatLon0.15_PT165H.grib2 2026-04-30 16:31 648K
20260430T12Z_MSC_GDPS_WindSpeed_IsbL-0005_LatLon0.15_PT165H.grib2 2026-04-30 16:31 689K
20260430T12Z_MSC_GDPS_WindSpeed_IsbL-0010_LatLon0.15_PT165H.grib2 2026-04-30 16:31 702K
20260430T12Z_MSC_GDPS_WindSpeed_IsbL-0020_LatLon0.15_PT165H.grib2 2026-04-30 16:31 661K
20260430T12Z_MSC_GDPS_WindSpeed_IsbL-0030_LatLon0.15_PT165H.grib2 2026-04-30 16:31 664K
20260430T12Z_MSC_GDPS_WindSpeed_IsbL-0050_LatLon0.15_PT165H.grib2 2026-04-30 16:31 892K
20260430T12Z_MSC_GDPS_WindSpeed_IsbL-0100_LatLon0.15_PT165H.grib2 2026-04-30 16:31 1.1M
20260430T12Z_MSC_GDPS_WindSpeed_IsbL-0150_LatLon0.15_PT165H.grib2 2026-04-30 16:31 1.0M
20260430T12Z_MSC_GDPS_WindSpeed_IsbL-0175_LatLon0.15_PT165H.grib2 2026-04-30 16:31 1.0M
20260430T12Z_MSC_GDPS_WindSpeed_IsbL-0200_LatLon0.15_PT165H.grib2 2026-04-30 16:31 1.1M
20260430T12Z_MSC_GDPS_WindSpeed_IsbL-0225_LatLon0.15_PT165H.grib2 2026-04-30 16:31 1.1M
20260430T12Z_MSC_GDPS_WindSpeed_IsbL-0250_LatLon0.15_PT165H.grib2 2026-04-30 16:31 1.1M
20260430T12Z_MSC_GDPS_WindSpeed_IsbL-0275_LatLon0.15_PT165H.grib2 2026-04-30 16:31 1.1M
20260430T12Z_MSC_GDPS_WindSpeed_IsbL-0300_LatLon0.15_PT165H.grib2 2026-04-30 16:31 1.1M
20260430T12Z_MSC_GDPS_WindSpeed_IsbL-0350_LatLon0.15_PT165H.grib2 2026-04-30 16:31 1.1M
20260430T12Z_MSC_GDPS_WindSpeed_IsbL-0400_LatLon0.15_PT165H.grib2 2026-04-30 16:31 1.1M
20260430T12Z_MSC_GDPS_WindSpeed_IsbL-0450_LatLon0.15_PT165H.grib2 2026-04-30 16:31 1.1M
20260430T12Z_MSC_GDPS_WindSpeed_IsbL-0500_LatLon0.15_PT165H.grib2 2026-04-30 16:31 1.1M
20260430T12Z_MSC_GDPS_WindSpeed_IsbL-0550_LatLon0.15_PT165H.grib2 2026-04-30 16:31 1.1M
20260430T12Z_MSC_GDPS_WindSpeed_IsbL-0600_LatLon0.15_PT165H.grib2 2026-04-30 16:31 1.1M
20260430T12Z_MSC_GDPS_WindSpeed_IsbL-0650_LatLon0.15_PT165H.grib2 2026-04-30 16:31 1.2M
20260430T12Z_MSC_GDPS_WindSpeed_IsbL-0700_LatLon0.15_PT165H.grib2 2026-04-30 16:31 1.5M
20260430T12Z_MSC_GDPS_WindSpeed_IsbL-0750_LatLon0.15_PT165H.grib2 2026-04-30 16:31 1.6M
20260430T12Z_MSC_GDPS_WindSpeed_IsbL-0800_LatLon0.15_PT165H.grib2 2026-04-30 16:31 1.6M
20260430T12Z_MSC_GDPS_WindSpeed_IsbL-0850_LatLon0.15_PT165H.grib2 2026-04-30 16:31 1.7M
20260430T12Z_MSC_GDPS_WindSpeed_IsbL-0875_LatLon0.15_PT165H.grib2 2026-04-30 16:31 1.8M
20260430T12Z_MSC_GDPS_WindSpeed_IsbL-0900_LatLon0.15_PT165H.grib2 2026-04-30 16:31 1.8M
20260430T12Z_MSC_GDPS_WindSpeed_IsbL-0925_LatLon0.15_PT165H.grib2 2026-04-30 16:31 1.9M
20260430T12Z_MSC_GDPS_WindSpeed_IsbL-0950_LatLon0.15_PT165H.grib2 2026-04-30 16:31 1.9M
20260430T12Z_MSC_GDPS_WindSpeed_IsbL-0970_LatLon0.15_PT165H.grib2 2026-04-30 16:31 1.9M
20260430T12Z_MSC_GDPS_WindSpeed_IsbL-0985_LatLon0.15_PT165H.grib2 2026-04-30 16:31 1.8M
20260430T12Z_MSC_GDPS_WindSpeed_IsbL-1000_LatLon0.15_PT165H.grib2 2026-04-30 16:31 1.8M
20260430T12Z_MSC_GDPS_WindSpeed_IsbL-1015_LatLon0.15_PT165H.grib2 2026-04-30 16:31 1.8M
20260430T12Z_MSC_GDPS_WindU_AGL-10m_LatLon0.15_PT165H.grib2 2026-04-30 16:31 1.6M
20260430T12Z_MSC_GDPS_WindU_AGL-120m_LatLon0.15_PT165H.grib2 2026-04-30 16:31 961K
20260430T12Z_MSC_GDPS_WindU_AGL-40m_LatLon0.15_PT165H.grib2 2026-04-30 16:31 958K
20260430T12Z_MSC_GDPS_WindU_AGL-80m_LatLon0.15_PT165H.grib2 2026-04-30 16:31 962K
20260430T12Z_MSC_GDPS_WindU_IsbL-0001_LatLon0.15_PT165H.grib2 2026-04-30 16:31 502K
20260430T12Z_MSC_GDPS_WindU_IsbL-0005_LatLon0.15_PT165H.grib2 2026-04-30 16:31 687K
20260430T12Z_MSC_GDPS_WindU_IsbL-0010_LatLon0.15_PT165H.grib2 2026-04-30 16:31 698K
20260430T12Z_MSC_GDPS_WindU_IsbL-0020_LatLon0.15_PT165H.grib2 2026-04-30 16:31 730K
20260430T12Z_MSC_GDPS_WindU_IsbL-0030_LatLon0.15_PT165H.grib2 2026-04-30 16:31 734K
20260430T12Z_MSC_GDPS_WindU_IsbL-0050_LatLon0.15_PT165H.grib2 2026-04-30 16:31 758K
20260430T12Z_MSC_GDPS_WindU_IsbL-0100_LatLon0.15_PT165H.grib2 2026-04-30 16:31 861K
20260430T12Z_MSC_GDPS_WindU_IsbL-0150_LatLon0.15_PT165H.grib2 2026-04-30 16:31 1.0M
20260430T12Z_MSC_GDPS_WindU_IsbL-0175_LatLon0.15_PT165H.grib2 2026-04-30 16:31 1.0M
20260430T12Z_MSC_GDPS_WindU_IsbL-0200_LatLon0.15_PT165H.grib2 2026-04-30 16:31 841K
20260430T12Z_MSC_GDPS_WindU_IsbL-0225_LatLon0.15_PT165H.grib2 2026-04-30 16:31 1.1M
20260430T12Z_MSC_GDPS_WindU_IsbL-0250_LatLon0.15_PT165H.grib2 2026-04-30 16:31 854K
20260430T12Z_MSC_GDPS_WindU_IsbL-0275_LatLon0.15_PT165H.grib2 2026-04-30 16:31 884K
20260430T12Z_MSC_GDPS_WindU_IsbL-0300_LatLon0.15_PT165H.grib2 2026-04-30 16:31 874K
20260430T12Z_MSC_GDPS_WindU_IsbL-0350_LatLon0.15_PT165H.grib2 2026-04-30 16:31 890K
20260430T12Z_MSC_GDPS_WindU_IsbL-0400_LatLon0.15_PT165H.grib2 2026-04-30 16:31 894K
20260430T12Z_MSC_GDPS_WindU_IsbL-0450_LatLon0.15_PT165H.grib2 2026-04-30 16:31 897K
20260430T12Z_MSC_GDPS_WindU_IsbL-0500_LatLon0.15_PT165H.grib2 2026-04-30 16:31 1.1M
20260430T12Z_MSC_GDPS_WindU_IsbL-0550_LatLon0.15_PT165H.grib2 2026-04-30 16:31 1.1M
20260430T12Z_MSC_GDPS_WindU_IsbL-0600_LatLon0.15_PT165H.grib2 2026-04-30 16:31 1.1M
20260430T12Z_MSC_GDPS_WindU_IsbL-0650_LatLon0.15_PT165H.grib2 2026-04-30 16:31 1.2M
20260430T12Z_MSC_GDPS_WindU_IsbL-0700_LatLon0.15_PT165H.grib2 2026-04-30 16:31 1.2M
20260430T12Z_MSC_GDPS_WindU_IsbL-0750_LatLon0.15_PT165H.grib2 2026-04-30 16:31 1.3M
20260430T12Z_MSC_GDPS_WindU_IsbL-0800_LatLon0.15_PT165H.grib2 2026-04-30 16:31 1.4M
20260430T12Z_MSC_GDPS_WindU_IsbL-0850_LatLon0.15_PT165H.grib2 2026-04-30 16:31 1.4M
20260430T12Z_MSC_GDPS_WindU_IsbL-0875_LatLon0.15_PT165H.grib2 2026-04-30 16:31 1.5M
20260430T12Z_MSC_GDPS_WindU_IsbL-0900_LatLon0.15_PT165H.grib2 2026-04-30 16:31 1.5M
20260430T12Z_MSC_GDPS_WindU_IsbL-0925_LatLon0.15_PT165H.grib2 2026-04-30 16:31 1.4M
20260430T12Z_MSC_GDPS_WindU_IsbL-0950_LatLon0.15_PT165H.grib2 2026-04-30 16:31 1.4M
20260430T12Z_MSC_GDPS_WindU_IsbL-0970_LatLon0.15_PT165H.grib2 2026-04-30 16:31 1.4M
20260430T12Z_MSC_GDPS_WindU_IsbL-0985_LatLon0.15_PT165H.grib2 2026-04-30 16:31 1.7M
20260430T12Z_MSC_GDPS_WindU_IsbL-1000_LatLon0.15_PT165H.grib2 2026-04-30 16:31 1.7M
20260430T12Z_MSC_GDPS_WindU_IsbL-1015_LatLon0.15_PT165H.grib2 2026-04-30 16:31 1.6M
20260430T12Z_MSC_GDPS_WindV_AGL-10m_LatLon0.15_PT165H.grib2 2026-04-30 16:31 1.5M
20260430T12Z_MSC_GDPS_WindV_AGL-120m_LatLon0.15_PT165H.grib2 2026-04-30 16:31 958K
20260430T12Z_MSC_GDPS_WindV_AGL-40m_LatLon0.15_PT165H.grib2 2026-04-30 16:31 1.2M
20260430T12Z_MSC_GDPS_WindV_AGL-80m_LatLon0.15_PT165H.grib2 2026-04-30 16:31 958K
20260430T12Z_MSC_GDPS_WindV_IsbL-0001_LatLon0.15_PT165H.grib2 2026-04-30 16:31 715K
20260430T12Z_MSC_GDPS_WindV_IsbL-0005_LatLon0.15_PT165H.grib2 2026-04-30 16:31 855K
20260430T12Z_MSC_GDPS_WindV_IsbL-0010_LatLon0.15_PT165H.grib2 2026-04-30 16:31 882K
20260430T12Z_MSC_GDPS_WindV_IsbL-0020_LatLon0.15_PT165H.grib2 2026-04-30 16:31 932K
20260430T12Z_MSC_GDPS_WindV_IsbL-0030_LatLon0.15_PT165H.grib2 2026-04-30 16:31 934K
20260430T12Z_MSC_GDPS_WindV_IsbL-0050_LatLon0.15_PT165H.grib2 2026-04-30 16:31 1.0M
20260430T12Z_MSC_GDPS_WindV_IsbL-0100_LatLon0.15_PT165H.grib2 2026-04-30 16:31 1.1M
20260430T12Z_MSC_GDPS_WindV_IsbL-0150_LatLon0.15_PT165H.grib2 2026-04-30 16:31 1.0M
20260430T12Z_MSC_GDPS_WindV_IsbL-0175_LatLon0.15_PT165H.grib2 2026-04-30 16:31 1.0M
20260430T12Z_MSC_GDPS_WindV_IsbL-0200_LatLon0.15_PT165H.grib2 2026-04-30 16:31 836K
20260430T12Z_MSC_GDPS_WindV_IsbL-0225_LatLon0.15_PT165H.grib2 2026-04-30 16:31 847K
20260430T12Z_MSC_GDPS_WindV_IsbL-0250_LatLon0.15_PT165H.grib2 2026-04-30 16:31 849K
20260430T12Z_MSC_GDPS_WindV_IsbL-0275_LatLon0.15_PT165H.grib2 2026-04-30 16:31 878K
20260430T12Z_MSC_GDPS_WindV_IsbL-0300_LatLon0.15_PT165H.grib2 2026-04-30 16:31 868K
20260430T12Z_MSC_GDPS_WindV_IsbL-0350_LatLon0.15_PT165H.grib2 2026-04-30 16:31 881K
20260430T12Z_MSC_GDPS_WindV_IsbL-0400_LatLon0.15_PT165H.grib2 2026-04-30 16:31 884K
20260430T12Z_MSC_GDPS_WindV_IsbL-0450_LatLon0.15_PT165H.grib2 2026-04-30 16:31 884K
20260430T12Z_MSC_GDPS_WindV_IsbL-0500_LatLon0.15_PT165H.grib2 2026-04-30 16:31 1.1M
20260430T12Z_MSC_GDPS_WindV_IsbL-0550_LatLon0.15_PT165H.grib2 2026-04-30 16:31 1.1M
20260430T12Z_MSC_GDPS_WindV_IsbL-0600_LatLon0.15_PT165H.grib2 2026-04-30 16:31 1.1M
20260430T12Z_MSC_GDPS_WindV_IsbL-0650_LatLon0.15_PT165H.grib2 2026-04-30 16:31 1.1M
20260430T12Z_MSC_GDPS_WindV_IsbL-0700_LatLon0.15_PT165H.grib2 2026-04-30 16:31 1.2M
20260430T12Z_MSC_GDPS_WindV_IsbL-0750_LatLon0.15_PT165H.grib2 2026-04-30 16:31 1.2M
20260430T12Z_MSC_GDPS_WindV_IsbL-0800_LatLon0.15_PT165H.grib2 2026-04-30 16:31 1.3M
20260430T12Z_MSC_GDPS_WindV_IsbL-0850_LatLon0.15_PT165H.grib2 2026-04-30 16:31 1.4M
20260430T12Z_MSC_GDPS_WindV_IsbL-0875_LatLon0.15_PT165H.grib2 2026-04-30 16:31 1.4M
20260430T12Z_MSC_GDPS_WindV_IsbL-0900_LatLon0.15_PT165H.grib2 2026-04-30 16:31 1.4M
20260430T12Z_MSC_GDPS_WindV_IsbL-0925_LatLon0.15_PT165H.grib2 2026-04-30 16:31 1.4M
20260430T12Z_MSC_GDPS_WindV_IsbL-0950_LatLon0.15_PT165H.grib2 2026-04-30 16:31 1.4M
20260430T12Z_MSC_GDPS_WindV_IsbL-0970_LatLon0.15_PT165H.grib2 2026-04-30 16:31 1.4M
20260430T12Z_MSC_GDPS_WindV_IsbL-0985_LatLon0.15_PT165H.grib2 2026-04-30 16:31 1.4M
20260430T12Z_MSC_GDPS_WindV_IsbL-1000_LatLon0.15_PT165H.grib2 2026-04-30 16:31 1.7M
20260430T12Z_MSC_GDPS_WindV_IsbL-1015_LatLon0.15_PT165H.grib2 2026-04-30 16:31 1.6M